GW5239 Weather Reports


time (UTC)temp
C
wind
direction
speed
KPH
gust
KPH
rain 1hr
cm
rain 24hr
cm
rain mn
cm
humidity
%
barometer
mb
20260506234516 7 313 0.0 0.0 0.00 1.04 0.00 94 1013.4
20260506233020 7 312 0.0 0.0 0.00 1.07 0.00 93 1013.4
20260506231504 6 312 0.0 0.0 0.00 1.12 0.00 93 1013.4
20260506230003 6 313 0.0 0.0 0.00 1.12 0.00 93 1013.4
20260506224510 6 312 0.0 1.6 0.00 1.14 0.00 92 1013.3
20260506223016 6 313 0.0 0.0 0.00 1.17 0.00 91 1012.9
20260506221521 7 313 0.0 0.0 0.00 1.22 0.00 89 1012.7
20260506220026 7 313 0.0 0.0 0.00 1.22 0.00 89 1012.7
20260506214507 7 317 0.0 3.2 0.00 1.27 1.22 88 1012.7
20260506213011 7 288 0.0 3.2 0.00 1.30 1.22 87 1012.7
20260506211518 8 297 0.0 1.6 0.00 1.37 1.22 86 1012.5
20260506210022 8 295 0.0 3.2 0.00 1.40 1.22 85 1012.5
20260506204526 8 347 0.0 4.8 0.00 1.45 1.22 84 1012.3
20260506203008 8 338 0.0 4.8 0.00 1.50 1.22 84 1012.2
20260506201516 9 345 0.0 4.8 0.00 1.50 1.22 83 1012.1
20260506200019 9 298 0.0 4.8 0.00 1.52 1.22 83 1011.9
20260506194524 10 325 0.0 4.8 0.00 1.55 1.22 84 1011.8
20260506193025 10 14 0.0 3.2 0.00 1.57 1.22 88 1011.8
20260506191525 10 314 0.0 1.6 0.00 1.57 1.22 88 1011.5
20260506190014 10 308 0.0 4.8 0.00 1.60 1.22 87 1011.4
20260506184521 11 316 0.0 1.6 0.00 1.63 1.22 87 1011.2
20260506183022 11 316 0.0 1.6 0.00 1.65 1.22 86 1011.2
20260506181528 11 316 0.0 1.6 0.00 1.68 1.22 86 1010.9
20260506180038 11 323 0.0 4.8 0.00 1.68 1.22 85 1010.8
20260506174513 11 267 0.0 3.2 0.00 1.70 1.22 84 1010.5
20260506173020 11 286 0.0 4.8 0.00 1.70 1.22 83 1010.4
20260506171527 11 350 0.0 8.0 0.00 1.70 1.22 81 1010.2
20260506170027 11 286 1.6 6.4 0.00 1.70 1.22 82 1010.2
20260506164529 11 252 0.0 6.4 0.00 1.70 1.22 85 1010.1
20260506163052 11 317 0.0 3.2 0.00 1.70 1.22 86 1010.1
20260506161520 11 325 0.0 1.6 0.00 1.70 1.22 90 1010.1
20260506160010 11 347 0.0 1.6 0.00 1.70 1.22 89 1010.1
20260506154509 11 347 0.0 0.0 0.00 1.70 1.22 89 1010.1
20260506153010 11 347 0.0 1.6 0.00 1.70 1.22 87 1010.0
20260506151518 11 347 0.0 1.6 0.00 1.70 1.22 86 1010.1
20260506150026 11 347 0.0 1.6 0.00 1.70 1.22 87 1010.1
20260506144503 11 271 0.0 3.2 0.00 1.70 1.22 86 1010.0
20260506143008 11 303 0.0 3.2 0.00 1.70 1.22 86 1010.0
20260506141514 11 268 0.0 4.8 0.00 1.70 1.22 86 1010.0
20260506140018 11 266 0.0 4.8 0.00 1.70 1.22 89 1010.1
20260506134522 11 261 1.6 4.8 0.00 1.70 1.22 87 1010.0
20260506133028 11 316 0.0 4.8 0.00 1.70 1.22 87 1010.1
20260506131514 11 330 0.0 4.8 0.00 1.70 1.22 88 1010.0
20260506130014 11 5 0.0 6.4 0.00 1.70 1.22 87 1010.0
20260506124520 11 315 1.6 11.3 0.00 1.70 1.22 88 1009.9
20260506123026 11 292 1.6 9.7 0.00 1.70 1.22 88 1009.9
20260506121528 11 243 1.6 12.9 0.00 1.70 1.22 89 1009.8
20260506120010 11 323 3.2 9.7 0.00 1.70 1.22 92 1009.8
20260506114515 10 312 1.6 12.9 0.00 1.70 1.22 94 1009.7
20260506113019 10 36 1.6 6.4 0.00 1.70 1.22 96 1009.7
20260506111525 10 263 3.2 8.0 0.00 1.70 1.22 97 1009.7
20260506110030 10 348 1.6 6.4 0.00 1.70 1.22 97 1009.7
20260506104528 9 304 1.6 6.4 0.00 1.70 1.22 97 1009.9
20260506103018 8 317 1.6 6.4 0.00 1.70 1.22 97 1010.0
20260506101503 8 350 1.6 6.4 0.03 1.70 1.22 97 1009.8
20260506100004 8 324 0.0 8.0 0.05 1.70 1.22 97 1009.6
20260506094508 8 42 1.6 11.3 0.08 1.70 1.22 97 1009.5
20260506093004 8 309 1.6 8.0 0.08 1.68 1.22 97 1009.4
20260506091504 8 317 1.6 6.4 0.08 1.68 1.19 97 1009.3
20260506090004 8 33 0.0 6.4 0.08 1.65 1.17 97 1009.2
20260506084504 8 118 1.6 8.0 0.05 1.63 1.14 97 1009.1
20260506083009 8 340 0.0 4.8 0.05 1.57 1.12 97 1009.0
20260506081511 8 329 0.0 6.4 0.08 1.57 1.12 97 1008.9
20260506073006 7 15 1.6 8.0 0.08 1.52 1.04 97 1008.4
20260506071510 7 333 1.6 8.0 0.08 1.50 1.02 97 1008.3
20260506061514 7 323 0.0 11.3 0.13 1.40 0.94 97 1008.2
20260506044513 7 298 1.6 6.4 0.08 1.14 0.66 97 1008.1
20260506043020 7 32 1.6 9.7 0.08 1.12 0.64 97 1008.1
20260506041520 7 319 0.0 6.4 0.05 1.07 0.58 97 1008.1
20260506040023 7 58 1.6 11.3 0.05 1.04 0.56 97 1008.0
20260506034511 7 113 3.2 11.3 0.08 1.04 0.56 97 1008.1
20260506033016 7 98 1.6 11.3 0.05 1.02 0.56 97 1008.1
20260506031537 7 291 0.0 9.7 0.05 1.02 0.53 97 1008.1
20260506030024 7 19 0.0 8.0 0.05 0.99 0.51 97 1008.2
20260506024523 7 304 0.0 6.4 0.05 0.97 0.48 97 1008.2
20260506023012 7 52 0.0 14.5 0.08 0.97 0.48 97 1008.3
20260506021516 7 355 1.6 8.0 0.13 0.94 0.46 97 1008.3
20260506020020 8 336 1.6 6.4 0.13 0.94 0.46 96 1008.3
20260506014529 8 328 1.6 8.0 0.15 0.91 0.43 97 1008.4
20260506013028 8 322 0.0 4.8 0.13 0.86 0.38 97 1008.4
20260506011513 8 14 1.6 9.7 0.10 0.81 0.33 97 1008.4
20260506010012 8 300 1.6 14.5 0.10 0.79 0.30 97 1008.5
20260506004511 8 311 1.6 9.7 0.08 0.74 0.28 96 1008.5
20260506003008 8 323 0.0 8.0 0.08 0.74 0.25 97 1008.6
20260506001508 8 13 0.0 9.7 0.08 0.69 0.20 97 1008.6
20260506000014 8 15 1.6 9.7 0.08 0.66 0.18 97 1008.8